Muncie, IN

8:36 PM EDT on June 28, 2017 (GMT -0400)
Delaware County-Johnson

Weather History for KMIE - May, 2013

Change the Weather History Date:

Friday, May 17, 2013

  Actual Average Record
Temperature  
Mean Temperature 72 °F 62 °F  
Max Temperature 84 °F 72 °F 89 °F (1991)
Min Temperature 60 °F 52 °F 31 °F (1973)
Degree Days  
Heating Degree Days 0 5  
Month to date heating degree days 55 117  
Since 1 July heating degree days 5338 5709  
Cooling Degree Days 7 2  
Month to date cooling degree days 59 24  
Year to date cooling degree days 72 39  
Growing Degree Days 21 (Base 50)    
Moisture  
Dew Point 60 °F    
Average Humidity 71    
Maximum Humidity 90    
Minimum Humidity 51    
Precipitation  
Precipitation 0.20 in 0.15 in 1.40 in (1980)
Month to date precipitation 0.95 2.27  
Year to date precipitation 13.62 13.43  
Sea Level Pressure  
Sea Level Pressure 30.01 in    
Wind  
Wind Speed 5 mph (SSE)    
Max Wind Speed 20 mph    
Max Gust Speed 28 mph    
Visibility 5 miles    
Events Fog , Rain , Thunderstorm    
T = Trace of Precipitation, MM = Missing Value Source: NWS Daily Summary

Daily Weather History Graph

Daily Weather History Graph

Search for Another Location

Airport or City:

Trip Planner

Search our weather history database for the weather conditions in past years. The results will help you decide how hot, cold, wet, or windy it might be!

Date:

Astronomy

May. 17, 2013 Rise Set
Actual Time 6:23 AM EDT 8:52 PM EDT
Civil Twilight 5:52 AM EDT 9:23 PM EDT
Nautical Twilight 5:14 AM EDT 10:02 PM EDT
Astronomical Twilight 4:31 AM EDT 10:45 PM EDT
Moon 12:55 PM EDT (5/17) 1:44 AM EDT (5/17)
Length of Visible Light 15h 31m
Length of Day
14h 29m
Waxing Crescent, 45% of the Moon is Illuminated
May 17
Waxing Crescent
May 18
First Quarter
May 25
Full
May 31
Last Quarter
Jun 8
New

Hourly Weather History & Observations

Time (EDT) Temp. Heat Index Dew Point Humidity Pressure Visibility Wind Dir Wind Speed Gust Speed Precip Events Conditions
12:53 AM 68.0 °F - 61.0 °F 78% 29.97 in 9.0 mi SSW 4.6 mph - N/A   Clear
1:53 AM 66.9 °F - 61.0 °F 81% 29.96 in 7.0 mi SSW 3.5 mph - N/A   Clear
2:53 AM 66.0 °F - 61.0 °F 84% 29.96 in 5.0 mi SSW 3.5 mph - N/A   Haze
3:53 AM 63.0 °F - 59.0 °F 87% 29.98 in 4.0 mi NNE 5.8 mph - N/A   Clear
4:11 AM 62.6 °F - 57.2 °F 82% 30.00 in 2.5 mi Calm Calm - N/A   Clear
4:28 AM 62.6 °F - 57.2 °F 82% 30.00 in 1.8 mi Calm Calm - N/A   Partly Cloudy
4:53 AM 62.1 °F - 57.9 °F 86% 29.98 in 1.2 mi ESE 3.5 mph - N/A   Partly Cloudy
4:56 AM 62.6 °F - 57.2 °F 82% 30.01 in 0.8 mi East 3.5 mph - N/A   Mist
5:06 AM 60.8 °F - 55.4 °F 82% 30.01 in 0.2 mi East 4.6 mph - N/A Fog Fog
5:19 AM 62.6 °F - 57.2 °F 82% 30.01 in 1.0 mi Calm Calm - N/A   Mist
5:25 AM 62.6 °F - 57.2 °F 82% 30.01 in 2.0 mi SSE 3.5 mph - N/A   Scattered Clouds
5:53 AM 60.1 °F - 57.0 °F 90% 29.99 in 1.0 mi ESE 3.5 mph - N/A   Clear
6:00 AM 60.8 °F - 57.2 °F 88% 30.02 in 0.5 mi ESE 3.5 mph - N/A Fog Fog
6:07 AM 60.8 °F - 57.2 °F 88% 30.01 in 0.8 mi Calm Calm - N/A   Scattered Clouds
6:17 AM 62.6 °F - 57.2 °F 82% 30.02 in 2.0 mi Calm Calm - N/A   Mostly Cloudy
6:30 AM 62.6 °F - 59.0 °F 88% 30.02 in 1.5 mi South 3.5 mph - N/A   Overcast
6:53 AM 63.0 °F - 59.0 °F 87% 30.00 in 1.8 mi Calm Calm - N/A   Overcast
7:01 AM 62.6 °F - 59.0 °F 88% 30.03 in 2.0 mi SSE 3.5 mph - N/A   Overcast
8:41 AM 68.0 °F - 62.6 °F 83% 30.05 in 3.0 mi Calm Calm - N/A   Haze
8:53 AM 69.1 °F - 63.0 °F 81% 30.02 in 3.0 mi Calm Calm - N/A   Haze
9:53 AM 71.1 °F - 63.0 °F 75% 30.03 in 4.0 mi Calm Calm - N/A   Haze
10:53 AM 73.9 °F - 64.0 °F 71% 30.03 in 6.0 mi ESE 4.6 mph - N/A   Haze
11:53 AM 77.0 °F - 63.0 °F 62% 30.03 in 7.0 mi SE 6.9 mph - N/A   Clear
12:53 PM 79.0 °F - 63.0 °F 58% 30.02 in 8.0 mi ESE 8.1 mph - N/A   Clear
1:53 PM 82.9 °F 83.7 °F 62.1 °F 49% 30.01 in 10.0 mi SE 8.1 mph - N/A   Mostly Cloudy
3:08 PM 82.4 °F 82.5 °F 59.0 °F 45% 30.01 in 10.0 mi SE 4.6 mph - N/A   Scattered Clouds
3:46 PM 80.6 °F 81.5 °F 60.8 °F 51% 29.99 in 10.0 mi South 8.1 mph - N/A Thunderstorm Thunderstorm
3:53 PM 82.0 °F 82.1 °F 59.0 °F 45% 29.96 in 10.0 mi South 10.4 mph - N/A Thunderstorm Thunderstorm
4:07 PM 82.4 °F 82.9 °F 60.8 °F 48% 29.99 in 10.0 mi SE 11.5 mph 18.4 mph N/A Thunderstorm Scattered Clouds
4:42 PM 80.6 °F 81.5 °F 60.8 °F 51% 29.99 in 10.0 mi South 6.9 mph 17.3 mph N/A   Scattered Clouds
4:53 PM 81.0 °F 81.3 °F 59.0 °F 47% 29.97 in 10.0 mi SSE 10.4 mph - N/A   Mostly Cloudy
5:04 PM 80.6 °F 81.1 °F 59.0 °F 48% 30.00 in 10.0 mi SSE 6.9 mph - N/A Thunderstorm Mostly Cloudy
5:27 PM 73.4 °F - 60.8 °F 65% 30.03 in 10.0 mi SW 15.0 mph 27.6 mph N/A   Overcast
5:33 PM 73.4 °F - 60.8 °F 65% 30.04 in 10.0 mi WSW 12.7 mph 26.5 mph N/A Thunderstorm Overcast
5:53 PM 69.1 °F - 60.1 °F 73% 30.03 in 5.0 mi West 11.5 mph 19.6 mph 0.02 in Rain , Thunderstorm Light Thunderstorms and Rain
5:57 PM 60.8 °F - 60.8 °F 100% 30.05 in 1.8 mi West 8.1 mph 19.6 mph 0.08 in Rain , Thunderstorm Heavy Thunderstorms and Rain
6:07 PM 66.2 °F - 60.8 °F 83% 30.06 in 3.0 mi WNW 6.9 mph - 0.09 in Rain , Thunderstorm Light Thunderstorms and Rain
6:26 PM 60.8 °F - 60.8 °F 100% 30.05 in 4.0 mi WNW 4.6 mph - 0.10 in Rain Light Rain
6:53 PM - - - N/A% 30.05 in 4.0 mi WNW 4.6 mph - 0.14 in Rain Light Rain
7:53 PM 66.9 °F - 63.0 °F 87% 30.04 in 4.0 mi NE 6.9 mph - 0.03 in Rain Light Rain
8:53 PM 66.9 °F - 62.1 °F 84% 30.05 in 5.0 mi East 5.8 mph - 0.01 in Rain Light Rain
9:53 PM 66.9 °F - 62.1 °F 84% 30.04 in 5.0 mi ESE 5.8 mph - 0.00 in   Haze
10:53 PM 66.9 °F - 62.1 °F 84% 30.05 in 6.0 mi SE 6.9 mph - N/A   Haze
11:53 PM 66.9 °F - 62.1 °F 84% 30.05 in 5.0 mi ESE 4.6 mph - N/A   Haze